TimeEDT,TemperatureF,Dew PointF,Humidity,Sea Level PressureIn,VisibilityMPH,Wind Direction,Wind SpeedMPH,Gust SpeedMPH,PrecipitationIn,Events,Conditions,WindDirDegrees,DateUTC
12:51 AM,43.0,30.0,60,29.94,10.0,SW,5.8,-,N/A,,Clear,230,2013-10-20 04:51:00
1:51 AM,43.0,30.0,60,29.91,10.0,SW,5.8,-,N/A,,Clear,230,2013-10-20 05:51:00
2:51 AM,43.0,28.9,58,29.95,10.0,SW,6.9,-,N/A,,Scattered Clouds,230,2013-10-20 06:51:00
3:51 AM,43.0,28.9,58,29.94,10.0,SW,6.9,-,N/A,,Scattered Clouds,230,2013-10-20 07:51:00
4:51 AM,42.1,30.0,62,29.94,10.0,SW,5.8,-,N/A,,Clear,220,2013-10-20 08:51:00
5:51 AM,42.1,28.9,60,29.95,10.0,SW,5.8,-,N/A,,Clear,220,2013-10-20 09:51:00
6:51 AM,44.1,28.0,53,29.96,10.0,South,9.2,-,N/A,,Clear,190,2013-10-20 10:51:00
7:51 AM,39.9,30.0,68,29.97,10.0,SW,11.5,-,N/A,,Partly Cloudy,220,2013-10-20 11:51:00
8:51 AM,42.1,28.0,58,29.99,10.0,SW,9.2,-,N/A,,Partly Cloudy,220,2013-10-20 12:51:00
9:51 AM,45.0,30.0,56,30.00,10.0,SSW,11.5,-,N/A,,Partly Cloudy,210,2013-10-20 13:51:00
10:51 AM,50.0,35.1,57,30.00,10.0,SSW,11.5,-,N/A,,Mostly Cloudy,210,2013-10-20 14:51:00
11:51 AM,53.1,35.1,50,29.99,10.0,WSW,11.5,-,N/A,,Mostly Cloudy,240,2013-10-20 15:51:00
12:51 PM,55.0,36.0,49,29.99,10.0,WSW,13.8,-,N/A,,Scattered Clouds,240,2013-10-20 16:51:00
1:51 PM,55.9,36.0,47,29.98,10.0,SW,13.8,-,N/A,,Scattered Clouds,220,2013-10-20 17:51:00
2:51 PM,57.0,36.0,45,29.97,10.0,SW,13.8,-,N/A,,Scattered Clouds,220,2013-10-20 18:51:00
3:51 PM,57.0,39.9,53,29.97,10.0,SW,12.7,-,N/A,,Scattered Clouds,220,2013-10-20 19:51:00
4:51 PM,57.0,39.9,53,29.98,10.0,SW,13.8,-,N/A,,Scattered Clouds,230,2013-10-20 20:51:00
5:51 PM,55.0,39.0,55,29.99,10.0,SW,11.5,-,N/A,,Scattered Clouds,220,2013-10-20 21:51:00
6:51 PM,52.0,39.0,61,30.00,10.0,SW,8.1,-,N/A,,Partly Cloudy,220,2013-10-20 22:51:00
7:51 PM,47.5,39.0,72,30.01,10.0,South,8.1,-,N/A,,Scattered Clouds,180,2013-10-20 23:51:00
8:51 PM,46.2,39.0,76,30.01,10.0,South,8.1,-,N/A,,Clear,190,2013-10-21 00:51:00
9:51 PM,45.3,39.0,79,30.02,10.0,South,8.1,-,N/A,,Clear,190,2013-10-21 01:51:00
10:51 PM,45.3,39.0,79,30.01,10.0,SSW,10.4,-,N/A,,Clear,200,2013-10-21 02:51:00
11:51 PM,45.3,39.0,79,30.01,10.0,SSW,12.7,-,N/A,,Clear,200,2013-10-21 03:51:00